Time,TemperatureF,DewpointF,PressureIn,WindDirection,WindDirectionDegrees,WindSpeedMPH,WindSpeedGustMPH,Humidity,HourlyPrecipIn,Conditions,Clouds,dailyrainin,SoftwareType,DateUTC
2013-01-23 00:03:00,17.1,14.1,26.78,North,0,0.0,0.0,88,0.00,,,0.00,VWS V14.01,2013-01-23 08:03:00,
2013-01-23 00:08:00,17.4,14.2,26.78,North,0,0.0,0.0,87,0.00,,,0.00,VWS V14.01,2013-01-23 08:08:00,
2013-01-23 00:13:00,17.4,14.2,26.78,North,0,0.0,0.0,87,0.00,,,0.00,VWS V14.01,2013-01-23 08:13:00,
2013-01-23 00:18:00,17.6,14.4,26.78,North,0,0.0,0.0,87,0.00,,,0.00,VWS V14.01,2013-01-23 08:18:00,
2013-01-23 00:23:00,17.4,14.2,26.78,North,0,0.0,0.0,87,0.00,,,0.00,VWS V14.01,2013-01-23 08:23:00,
2013-01-23 00:28:00,17.4,14.2,26.78,North,0,0.0,0.0,87,0.00,,,0.00,VWS V14.01,2013-01-23 08:28:00,
2013-01-23 00:33:00,17.4,14.2,26.78,North,0,0.0,0.0,87,0.00,,,0.00,VWS V14.01,2013-01-23 08:33:00,
2013-01-23 00:38:00,17.2,14.0,26.78,North,0,0.0,0.0,87,0.00,,,0.00,VWS V14.01,2013-01-23 08:38:00,
2013-01-23 00:43:00,16.9,13.4,26.78,North,0,0.0,0.0,86,0.00,,,0.00,VWS V14.01,2013-01-23 08:43:00,
2013-01-23 00:48:00,16.7,13.2,26.78,North,0,0.0,0.0,86,0.00,,,0.00,VWS V14.01,2013-01-23 08:48:00,
2013-01-23 00:53:00,16.7,13.2,26.78,North,0,0.0,0.0,86,0.00,,,0.00,VWS V14.01,2013-01-23 08:53:00,
2013-01-23 00:58:00,16.3,12.9,26.78,North,0,0.0,0.0,86,0.00,,,0.00,VWS V14.01,2013-01-23 08:58:00,
2013-01-23 01:03:00,16.3,12.9,26.78,North,0,0.0,0.0,86,0.00,,,0.00,VWS V14.01,2013-01-23 09:03:00,
2013-01-23 01:08:00,16.5,13.3,26.78,North,0,0.0,0.0,87,0.00,,,0.00,VWS V14.01,2013-01-23 09:08:00,
2013-01-23 01:13:00,16.5,13.3,26.78,North,0,0.0,0.0,87,0.00,,,0.00,VWS V14.01,2013-01-23 09:13:00,
2013-01-23 01:18:00,16.9,13.9,26.78,North,0,0.0,0.0,88,0.00,,,0.00,VWS V14.01,2013-01-23 09:18:00,
2013-01-23 01:23:00,16.9,13.9,26.75,North,0,0.0,0.0,88,0.00,,,0.00,VWS V14.01,2013-01-23 09:23:00,
2013-01-23 01:28:00,17.2,14.3,26.75,North,0,0.0,0.0,88,0.00,,,0.00,VWS V14.01,2013-01-23 09:28:00,
2013-01-23 01:33:00,16.0,12.8,26.75,North,0,0.0,0.0,87,0.00,,,0.00,VWS V14.01,2013-01-23 09:33:00,
2013-01-23 01:38:00,16.0,12.8,26.75,North,0,0.0,0.0,87,0.00,,,0.00,VWS V14.01,2013-01-23 09:38:00,
2013-01-23 01:43:00,14.5,10.9,26.75,North,0,0.0,0.0,85,0.00,,,0.00,VWS V14.01,2013-01-23 09:43:00,
2013-01-23 01:48:00,14.5,10.9,26.75,North,0,0.0,0.0,85,0.00,,,0.00,VWS V14.01,2013-01-23 09:48:00,
2013-01-23 01:53:00,14.4,10.9,26.78,North,0,0.0,0.0,86,0.00,,,0.00,VWS V14.01,2013-01-23 09:53:00,
2013-01-23 01:58:00,14.4,10.9,26.78,North,0,0.0,0.0,86,0.00,,,0.00,VWS V14.01,2013-01-23 09:58:00,
2013-01-23 02:03:00,14.9,12.0,26.78,North,0,0.0,0.0,88,0.00,,,0.00,VWS V14.01,2013-01-23 10:03:00,
2013-01-23 02:08:00,14.9,12.0,26.78,North,0,0.0,0.0,88,0.00,,,0.00,VWS V14.01,2013-01-23 10:08:00,
2013-01-23 02:13:00,15.1,12.2,26.78,North,0,0.0,0.0,88,0.00,,,0.00,VWS V14.01,2013-01-23 10:13:00,
2013-01-23 02:18:00,14.9,11.7,26.78,North,0,0.0,0.0,87,0.00,,,0.00,VWS V14.01,2013-01-23 10:18:00,
2013-01-23 02:23:00,14.9,11.7,26.78,North,0,0.0,0.0,87,0.00,,,0.00,VWS V14.01,2013-01-23 10:23:00,
2013-01-23 02:28:00,14.9,11.7,26.78,North,0,0.0,0.0,87,0.00,,,0.00,VWS V14.01,2013-01-23 10:28:00,
2013-01-23 02:33:00,15.4,12.5,26.78,North,0,0.0,0.0,88,0.00,,,0.00,VWS V14.01,2013-01-23 10:33:00,
2013-01-23 02:38:00,15.4,12.5,26.78,North,0,0.0,0.0,88,0.00,,,0.00,VWS V14.01,2013-01-23 10:38:00,
2013-01-23 02:43:00,15.8,12.9,26.78,North,0,0.0,0.0,88,0.00,,,0.00,VWS V14.01,2013-01-23 10:43:00,
2013-01-23 02:48:00,15.8,12.9,26.75,North,0,0.0,0.0,88,0.00,,,0.00,VWS V14.01,2013-01-23 10:48:00,
2013-01-23 02:53:00,15.8,12.9,26.75,North,0,0.0,0.0,88,0.00,,,0.00,VWS V14.01,2013-01-23 10:53:00,
2013-01-23 02:58:00,15.8,12.9,26.75,North,0,0.0,0.0,88,0.00,,,0.00,VWS V14.01,2013-01-23 10:58:00,
2013-01-23 03:03:00,15.4,12.5,26.75,North,0,0.0,0.0,88,0.00,,,0.00,VWS V14.01,2013-01-23 11:03:00,
2013-01-23 03:08:00,15.4,12.5,26.75,North,0,0.0,0.0,88,0.00,,,0.00,VWS V14.01,2013-01-23 11:08:00,
2013-01-23 03:13:00,15.4,12.3,26.75,North,0,0.0,0.0,87,0.00,,,0.00,VWS V14.01,2013-01-23 11:13:00,
2013-01-23 03:18:00,15.4,12.3,26.75,North,0,0.0,0.0,87,0.00,,,0.00,VWS V14.01,2013-01-23 11:18:00,
2013-01-23 03:23:00,15.4,12.3,26.75,North,0,0.0,0.0,87,0.00,,,0.00,VWS V14.01,2013-01-23 11:23:00,
2013-01-23 03:28:00,15.8,12.9,26.75,North,0,0.0,0.0,88,0.00,,,0.00,VWS V14.01,2013-01-23 11:28:00,
2013-01-23 03:33:00,15.8,12.9,26.75,North,0,0.0,0.0,88,0.00,,,0.00,VWS V14.01,2013-01-23 11:33:00,
2013-01-23 03:38:00,15.8,12.9,26.75,North,0,0.0,0.0,88,0.00,,,0.00,VWS V14.01,2013-01-23 11:38:00,
2013-01-23 03:43:00,16.0,12.8,26.75,North,0,0.0,0.0,87,0.00,,,0.00,VWS V14.01,2013-01-23 11:43:00,
2013-01-23 03:48:00,16.0,12.8,26.75,North,0,0.0,0.0,87,0.00,,,0.00,VWS V14.01,2013-01-23 11:48:00,
2013-01-23 03:53:00,15.8,12.6,26.75,North,0,0.0,0.0,87,0.00,,,0.00,VWS V14.01,2013-01-23 11:53:00,
2013-01-23 03:58:00,15.8,12.6,26.75,North,0,0.0,0.0,87,0.00,,,0.00,VWS V14.01,2013-01-23 11:58:00,
2013-01-23 04:03:00,15.8,12.6,26.75,North,0,0.0,0.0,87,0.00,,,0.00,VWS V14.01,2013-01-23 12:03:00,
2013-01-23 04:08:00,15.6,12.4,26.75,North,0,0.0,0.0,87,0.00,,,0.00,VWS V14.01,2013-01-23 12:08:00,
2013-01-23 04:13:00,15.6,12.4,26.75,North,0,0.0,0.0,87,0.00,,,0.00,VWS V14.01,2013-01-23 12:13:00,
2013-01-23 04:18:00,15.8,12.9,26.75,North,0,0.0,0.0,88,0.00,,,0.00,VWS V14.01,2013-01-23 12:18:00,
2013-01-23 04:23:00,15.8,12.9,26.75,North,0,0.0,0.0,88,0.00,,,0.00,VWS V14.01,2013-01-23 12:23:00,
2013-01-23 04:28:00,15.3,12.1,26.75,North,0,0.0,0.0,87,0.00,,,0.00,VWS V14.01,2013-01-23 12:28:00,
2013-01-23 04:33:00,15.3,12.1,26.75,North,0,0.0,0.0,87,0.00,,,0.00,VWS V14.01,2013-01-23 12:33:00,
2013-01-23 04:38:00,15.8,13.1,26.75,North,0,0.0,0.0,89,0.00,,,0.00,VWS V14.01,2013-01-23 12:38:00,
2013-01-23 04:43:00,15.6,13.0,26.75,North,0,0.0,0.0,89,0.00,,,0.00,VWS V14.01,2013-01-23 12:43:00,
2013-01-23 04:48:00,15.6,13.0,26.75,North,0,0.0,0.0,89,0.00,,,0.00,VWS V14.01,2013-01-23 12:48:00,
2013-01-23 04:53:00,15.6,13.0,26.75,North,0,0.0,0.0,89,0.00,,,0.00,VWS V14.01,2013-01-23 12:53:00,
2013-01-23 04:58:00,15.4,12.5,26.75,North,0,0.0,0.0,88,0.00,,,0.00,VWS V14.01,2013-01-23 12:58:00,
2013-01-23 05:03:00,15.4,12.5,26.75,North,0,0.0,0.0,88,0.00,,,0.00,VWS V14.01,2013-01-23 13:03:00,
2013-01-23 05:08:00,15.3,12.4,26.75,North,0,0.0,0.0,88,0.00,,,0.00,VWS V14.01,2013-01-23 13:08:00,
2013-01-23 05:13:00,15.3,12.4,26.75,North,0,0.0,0.0,88,0.00,,,0.00,VWS V14.01,2013-01-23 13:13:00,
2013-01-23 05:18:00,15.3,12.4,26.75,North,0,0.0,0.0,88,0.00,,,0.00,VWS V14.01,2013-01-23 13:18:00,
2013-01-23 05:23:00,15.1,11.9,26.75,North,0,0.0,0.0,87,0.00,,,0.00,VWS V14.01,2013-01-23 13:23:00,
2013-01-23 05:28:00,15.1,11.9,26.75,North,0,0.0,0.0,87,0.00,,,0.00,VWS V14.01,2013-01-23 13:28:00,
2013-01-23 05:33:00,15.1,11.9,26.75,North,0,0.0,0.0,87,0.00,,,0.00,VWS V14.01,2013-01-23 13:33:00,
2013-01-23 05:38:00,15.1,11.9,26.75,North,0,0.0,0.0,87,0.00,,,0.00,VWS V14.01,2013-01-23 13:38:00,
2013-01-23 05:43:00,15.1,11.9,26.75,North,0,0.0,0.0,87,0.00,,,0.00,VWS V14.01,2013-01-23 13:43:00,
2013-01-23 05:48:00,16.2,13.2,26.75,North,0,0.0,0.0,88,0.00,,,0.00,VWS V14.01,2013-01-23 13:48:00,
2013-01-23 05:53:00,16.2,13.2,26.75,North,0,0.0,0.0,88,0.00,,,0.00,VWS V14.01,2013-01-23 13:53:00,
2013-01-23 05:58:00,16.0,13.1,26.75,North,0,0.0,0.0,88,0.00,,,0.00,VWS V14.01,2013-01-23 13:58:00,
2013-01-23 06:03:00,16.2,13.2,26.75,North,0,0.0,0.0,88,0.00,,,0.00,VWS V14.01,2013-01-23 14:03:00,
2013-01-23 06:08:00,16.2,13.2,26.75,North,0,0.0,0.0,88,0.00,,,0.00,VWS V14.01,2013-01-23 14:08:00,
2013-01-23 06:13:00,16.2,13.2,26.75,North,0,0.0,0.0,88,0.00,,,0.00,VWS V14.01,2013-01-23 14:13:00,
2013-01-23 06:18:00,16.3,13.4,26.75,North,0,0.0,0.0,88,0.00,,,0.00,VWS V14.01,2013-01-23 14:18:00,
2013-01-23 06:23:00,16.3,13.4,26.72,North,0,0.0,0.0,88,0.00,,,0.00,VWS V14.01,2013-01-23 14:23:00,
2013-01-23 06:28:00,16.3,13.4,26.72,North,0,0.0,0.0,88,0.00,,,0.00,VWS V14.01,2013-01-23 14:28:00,
2013-01-23 06:33:00,16.7,13.8,26.72,North,0,0.0,0.0,88,0.00,,,0.00,VWS V14.01,2013-01-23 14:33:00,
2013-01-23 06:38:00,16.9,13.9,26.72,North,0,0.0,0.0,88,0.00,,,0.00,VWS V14.01,2013-01-23 14:38:00,
2013-01-23 06:43:00,16.9,13.9,26.72,North,0,0.0,0.0,88,0.00,,,0.00,VWS V14.01,2013-01-23 14:43:00,
2013-01-23 06:48:00,16.5,13.6,26.72,North,0,0.0,0.0,88,0.00,,,0.00,VWS V14.01,2013-01-23 14:48:00,
2013-01-23 06:53:00,16.5,13.6,26.72,North,0,0.0,0.0,88,0.00,,,0.00,VWS V14.01,2013-01-23 14:53:00,
2013-01-23 06:58:00,16.0,12.8,26.72,North,0,0.0,0.0,87,0.00,,,0.00,VWS V14.01,2013-01-23 14:58:00,
2013-01-23 07:03:00,15.6,12.4,26.72,North,0,0.0,0.0,87,0.00,,,0.00,VWS V14.01,2013-01-23 15:03:00,
2013-01-23 07:08:00,15.6,12.4,26.72,North,0,0.0,0.0,87,0.00,,,0.00,VWS V14.01,2013-01-23 15:08:00,
2013-01-23 07:13:00,15.6,12.4,26.72,North,0,0.0,0.0,87,0.00,,,0.00,VWS V14.01,2013-01-23 15:13:00,
2013-01-23 07:18:00,15.6,12.4,26.72,North,0,0.0,0.0,87,0.00,,,0.00,VWS V14.01,2013-01-23 15:18:00,
2013-01-23 07:23:00,14.9,11.7,26.72,North,0,0.0,0.0,87,0.00,,,0.00,VWS V14.01,2013-01-23 15:23:00,
2013-01-23 07:28:00,14.9,11.7,26.72,North,0,0.0,0.0,87,0.00,,,0.00,VWS V14.01,2013-01-23 15:28:00,
2013-01-23 07:33:00,15.1,11.9,26.72,North,0,0.0,0.0,87,0.00,,,0.00,VWS V14.01,2013-01-23 15:33:00,
2013-01-23 07:38:00,15.4,12.5,26.72,North,0,0.0,0.0,88,0.00,,,0.00,VWS V14.01,2013-01-23 15:38:00,
2013-01-23 07:43:00,15.3,12.1,26.72,North,0,0.0,0.0,87,0.00,,,0.00,VWS V14.01,2013-01-23 15:43:00,
2013-01-23 07:47:00,14.9,11.5,26.72,North,0,0.0,0.0,86,0.00,,,0.00,VWS V14.01,2013-01-23 15:47:00,
2013-01-23 07:52:00,14.9,11.5,26.72,North,0,0.0,0.0,86,0.00,,,0.00,VWS V14.01,2013-01-23 15:52:00,
2013-01-23 07:57:00,14.9,11.5,26.72,North,0,0.0,0.0,86,0.00,,,0.00,VWS V14.01,2013-01-23 15:57:00,
2013-01-23 08:03:00,15.3,12.1,26.72,North,0,0.0,0.0,87,0.00,,,0.00,VWS V14.01,2013-01-23 16:03:00,
2013-01-23 08:08:00,15.8,12.6,26.72,North,0,0.0,0.0,87,0.00,,,0.00,VWS V14.01,2013-01-23 16:08:00,
2013-01-23 08:12:00,16.2,13.0,26.72,North,0,0.0,0.0,87,0.00,,,0.00,VWS V14.01,2013-01-23 16:12:00,
2013-01-23 08:17:00,16.5,13.3,26.72,North,0,0.0,0.0,87,0.00,,,0.00,VWS V14.01,2013-01-23 16:17:00,
2013-01-23 08:22:00,16.3,12.9,26.72,North,0,0.0,0.0,86,0.00,,,0.00,VWS V14.01,2013-01-23 16:22:00,
2013-01-23 08:27:00,16.2,12.4,26.72,North,0,0.0,0.0,85,0.00,,,0.00,VWS V14.01,2013-01-23 16:27:00,
2013-01-23 08:32:00,16.5,12.8,26.72,North,0,0.0,0.0,85,0.00,,,0.00,VWS V14.01,2013-01-23 16:32:00,
2013-01-23 08:37:00,16.9,13.2,26.72,North,0,0.0,0.0,85,0.00,,,0.00,VWS V14.01,2013-01-23 16:37:00,
2013-01-23 08:42:00,17.2,13.5,26.72,North,0,0.0,0.0,85,0.00,,,0.00,VWS V14.01,2013-01-23 16:42:00,
2013-01-23 08:47:00,17.6,13.9,26.72,North,0,0.0,0.0,85,0.00,,,0.00,VWS V14.01,2013-01-23 16:47:00,
2013-01-23 08:52:00,18.1,14.4,26.72,North,0,0.0,0.0,85,0.00,,,0.00,VWS V14.01,2013-01-23 16:52:00,
2013-01-23 08:57:00,18.3,14.6,26.72,North,0,0.0,0.0,85,0.00,,,0.00,VWS V14.01,2013-01-23 16:57:00,
2013-01-23 09:02:00,18.9,15.1,26.72,North,0,0.0,0.0,85,0.00,,,0.00,VWS V14.01,2013-01-23 17:02:00,
2013-01-23 09:07:00,19.4,15.4,26.72,North,0,0.0,0.0,84,0.00,,,0.00,VWS V14.01,2013-01-23 17:07:00,
2013-01-23 09:12:00,19.9,15.9,26.72,North,0,0.0,0.0,84,0.00,,,0.00,VWS V14.01,2013-01-23 17:12:00,
2013-01-23 09:17:00,20.3,16.0,26.72,North,0,0.0,0.0,83,0.00,,,0.00,VWS V14.01,2013-01-23 17:17:00,
2013-01-23 09:22:00,20.7,16.3,26.72,North,0,0.0,0.0,83,0.00,,,0.00,VWS V14.01,2013-01-23 17:22:00,
2013-01-23 09:27:00,20.7,16.0,26.72,North,0,0.0,0.0,82,0.00,,,0.00,VWS V14.01,2013-01-23 17:27:00,
2013-01-23 09:32:00,21.0,16.1,26.72,North,0,0.0,0.0,81,0.00,,,0.00,VWS V14.01,2013-01-23 17:32:00,
2013-01-23 09:37:00,21.4,15.6,26.72,North,0,0.0,0.0,78,0.00,,,0.00,VWS V14.01,2013-01-23 17:37:00,
2013-01-23 09:42:00,21.6,16.1,26.72,North,0,0.0,0.0,79,0.00,,,0.00,VWS V14.01,2013-01-23 17:42:00,
2013-01-23 09:47:00,21.6,14.9,26.72,North,0,0.0,0.0,75,0.00,,,0.00,VWS V14.01,2013-01-23 17:47:00,
2013-01-23 09:52:00,21.2,13.9,26.72,North,0,0.0,0.0,73,0.00,,,0.00,VWS V14.01,2013-01-23 17:52:00,
2013-01-23 09:57:00,21.7,15.1,26.72,North,0,0.0,0.0,75,0.00,,,0.00,VWS V14.01,2013-01-23 17:57:00,
2013-01-23 10:02:00,22.1,16.0,26.72,North,0,0.0,0.0,77,0.00,,,0.00,VWS V14.01,2013-01-23 18:02:00,
2013-01-23 10:07:00,22.5,16.6,26.72,North,0,0.0,0.0,78,0.00,,,0.00,VWS V14.01,2013-01-23 18:07:00,
2013-01-23 10:12:00,22.6,16.5,26.72,North,0,0.0,0.0,77,0.00,,,0.00,VWS V14.01,2013-01-23 18:12:00,
2013-01-23 10:17:00,23.0,17.2,26.70,North,0,0.0,0.0,78,0.00,,,0.00,VWS V14.01,2013-01-23 18:17:00,
2013-01-23 10:22:00,23.4,17.5,26.70,North,0,0.0,0.0,78,0.00,,,0.00,VWS V14.01,2013-01-23 18:22:00,
2013-01-23 10:27:00,24.1,18.2,26.70,North,0,0.0,0.0,78,0.00,,,0.00,VWS V14.01,2013-01-23 18:27:00,
2013-01-23 10:32:00,25.2,19.3,26.70,North,0,0.0,0.0,78,0.00,,,0.00,VWS V14.01,2013-01-23 18:32:00,
2013-01-23 10:37:00,26.1,19.9,26.70,North,0,0.0,0.0,77,0.00,,,0.00,VWS V14.01,2013-01-23 18:37:00,
2013-01-23 10:42:00,26.8,19.0,26.70,North,0,0.0,0.0,72,0.00,,,0.00,VWS V14.01,2013-01-23 18:42:00,
2013-01-23 10:47:00,27.3,17.5,26.70,North,0,0.0,0.0,66,0.00,,,0.00,VWS V14.01,2013-01-23 18:47:00,
2013-01-23 10:52:00,27.9,19.4,26.70,North,0,0.0,0.0,70,0.00,,,0.00,VWS V14.01,2013-01-23 18:52:00,
2013-01-23 10:57:00,27.7,18.5,26.70,North,0,0.0,0.0,68,0.00,,,0.00,VWS V14.01,2013-01-23 18:57:00,
2013-01-23 11:02:00,27.0,16.8,26.70,North,0,0.0,0.0,65,0.00,,,0.00,VWS V14.01,2013-01-23 19:02:00,
2013-01-23 11:07:00,26.1,16.6,26.70,North,0,0.0,0.0,67,0.00,,,0.00,VWS V14.01,2013-01-23 19:07:00,
2013-01-23 11:12:00,25.3,16.3,26.70,North,0,0.0,0.0,68,0.00,,,0.00,VWS V14.01,2013-01-23 19:12:00,
2013-01-23 11:17:00,25.5,16.8,26.70,North,0,0.0,0.0,69,0.00,,,0.00,VWS V14.01,2013-01-23 19:17:00,
2013-01-23 11:22:00,25.9,17.1,26.70,North,0,0.0,0.0,69,0.00,,,0.00,VWS V14.01,2013-01-23 19:22:00,
2013-01-23 11:27:00,25.3,13.0,26.70,North,0,0.0,0.0,59,0.00,,,0.00,VWS V14.01,2013-01-23 19:27:00,
2013-01-23 11:32:00,25.9,15.4,26.67,North,0,0.0,0.0,64,0.00,,,0.00,VWS V14.01,2013-01-23 19:32:00,
2013-01-23 11:37:00,25.5,15.8,26.67,North,0,0.0,0.0,66,0.00,,,0.00,VWS V14.01,2013-01-23 19:37:00,
2013-01-23 11:42:00,25.9,16.5,26.67,North,0,0.0,0.0,67,0.00,,,0.00,VWS V14.01,2013-01-23 19:42:00,
2013-01-23 11:47:00,25.3,15.2,26.67,North,0,0.0,0.0,65,0.00,,,0.00,VWS V14.01,2013-01-23 19:47:00,
2013-01-23 11:52:00,24.8,15.1,26.67,North,0,0.0,0.0,66,0.00,,,0.00,VWS V14.01,2013-01-23 19:52:00,
2013-01-23 11:57:00,24.8,15.4,26.67,North,0,0.0,0.0,67,0.00,,,0.00,VWS V14.01,2013-01-23 19:57:00,
2013-01-23 12:02:00,24.6,15.6,26.67,North,0,0.0,0.0,68,0.00,,,0.00,VWS V14.01,2013-01-23 20:02:00,
2013-01-23 12:07:00,25.2,16.1,26.67,North,0,0.0,0.0,68,0.00,,,0.00,VWS V14.01,2013-01-23 20:07:00,
2013-01-23 12:12:00,25.5,16.4,26.67,North,0,0.0,0.0,68,0.00,,,0.00,VWS V14.01,2013-01-23 20:12:00,
2013-01-23 12:17:00,25.9,16.5,26.67,North,0,0.0,0.0,67,0.00,,,0.00,VWS V14.01,2013-01-23 20:17:00,
2013-01-23 12:22:00,25.9,15.8,26.67,North,0,0.0,0.0,65,0.00,,,0.00,VWS V14.01,2013-01-23 20:22:00,
2013-01-23 12:27:00,26.1,15.9,26.67,North,0,0.0,0.0,65,0.00,,,0.00,VWS V14.01,2013-01-23 20:27:00,
2013-01-23 12:32:00,26.4,16.3,26.64,North,0,0.0,0.0,65,0.00,,,0.00,VWS V14.01,2013-01-23 20:32:00,
2013-01-23 12:37:00,26.4,15.9,26.64,North,0,0.0,0.0,64,0.00,,,0.00,VWS V14.01,2013-01-23 20:37:00,
2013-01-23 12:42:00,26.2,15.0,26.64,North,0,0.0,0.0,62,0.00,,,0.00,VWS V14.01,2013-01-23 20:42:00,
2013-01-23 12:47:00,26.1,15.2,26.64,North,0,0.0,0.0,63,0.00,,,0.00,VWS V14.01,2013-01-23 20:47:00,
2013-01-23 12:52:00,26.1,14.8,26.64,North,0,0.0,0.0,62,0.00,,,0.00,VWS V14.01,2013-01-23 20:52:00,
2013-01-23 12:57:00,25.9,14.7,26.64,North,0,0.0,0.0,62,0.00,,,0.00,VWS V14.01,2013-01-23 20:57:00,
2013-01-23 13:02:00,26.2,15.4,26.64,North,0,0.0,0.0,63,0.00,,,0.00,VWS V14.01,2013-01-23 21:02:00,
2013-01-23 13:07:00,27.0,15.7,26.64,North,0,0.0,0.0,62,0.00,,,0.00,VWS V14.01,2013-01-23 21:07:00,
2013-01-23 13:12:00,26.8,14.8,26.64,North,0,0.0,0.0,60,0.00,,,0.00,VWS V14.01,2013-01-23 21:12:00,
2013-01-23 13:17:00,26.6,15.0,26.64,North,0,0.0,0.0,61,0.00,,,0.00,VWS V14.01,2013-01-23 21:17:00,
2013-01-23 13:22:00,26.4,14.8,26.64,North,0,0.0,0.0,61,0.00,,,0.00,VWS V14.01,2013-01-23 21:22:00,
2013-01-23 13:27:00,26.2,15.0,26.64,North,0,0.0,0.0,62,0.00,,,0.00,VWS V14.01,2013-01-23 21:27:00,
2013-01-23 13:32:00,26.4,15.6,26.64,North,0,0.0,0.0,63,0.00,,,0.00,VWS V14.01,2013-01-23 21:32:00,
2013-01-23 13:37:00,26.1,15.2,26.64,North,0,0.0,0.0,63,0.00,,,0.00,VWS V14.01,2013-01-23 21:37:00,
2013-01-23 13:42:00,26.1,15.2,26.64,North,0,0.0,0.0,63,0.00,,,0.00,VWS V14.01,2013-01-23 21:42:00,
2013-01-23 13:47:00,26.1,15.6,26.64,North,0,0.0,0.0,64,0.00,,,0.00,VWS V14.01,2013-01-23 21:47:00,
2013-01-23 13:52:00,25.9,15.4,26.64,North,0,0.0,0.0,64,0.00,,,0.00,VWS V14.01,2013-01-23 21:52:00,
2013-01-23 13:57:00,26.1,15.6,26.64,North,0,0.0,0.0,64,0.00,,,0.00,VWS V14.01,2013-01-23 21:57:00,
2013-01-23 14:02:00,25.9,15.4,26.64,North,0,0.0,0.0,64,0.00,,,0.00,VWS V14.01,2013-01-23 22:02:00,
2013-01-23 14:07:00,25.9,15.4,26.64,North,0,0.0,0.0,64,0.00,,,0.00,VWS V14.01,2013-01-23 22:07:00,
2013-01-23 14:12:00,25.7,15.2,26.64,North,0,0.0,0.0,64,0.00,,,0.00,VWS V14.01,2013-01-23 22:12:00,
2013-01-23 14:17:00,25.5,15.1,26.64,North,0,0.0,0.0,64,0.00,,,0.00,VWS V14.01,2013-01-23 22:17:00,
2013-01-23 14:22:00,25.5,15.4,26.64,North,0,0.0,0.0,65,0.00,,,0.00,VWS V14.01,2013-01-23 22:22:00,
2013-01-23 14:27:00,25.5,15.4,26.64,North,0,0.0,0.0,65,0.00,,,0.00,VWS V14.01,2013-01-23 22:27:00,
2013-01-23 14:32:00,25.7,15.6,26.64,North,0,0.0,0.0,65,0.00,,,0.00,VWS V14.01,2013-01-23 22:32:00,
2013-01-23 14:37:00,25.7,15.9,26.64,North,0,0.0,0.0,66,0.00,,,0.00,VWS V14.01,2013-01-23 22:37:00,
2013-01-23 14:42:00,25.7,15.6,26.61,North,0,0.0,0.0,65,0.00,,,0.00,VWS V14.01,2013-01-23 22:42:00,
2013-01-23 14:47:00,25.5,15.4,26.61,North,0,0.0,0.0,65,0.00,,,0.00,VWS V14.01,2013-01-23 22:47:00,
2013-01-23 14:52:00,25.5,15.8,26.61,North,0,0.0,0.0,66,0.00,,,0.00,VWS V14.01,2013-01-23 22:52:00,
2013-01-23 14:57:00,25.3,15.6,26.61,North,0,0.0,0.0,66,0.00,,,0.00,VWS V14.01,2013-01-23 22:57:00,
2013-01-23 15:02:00,25.3,15.6,26.61,North,0,0.0,0.0,66,0.00,,,0.00,VWS V14.01,2013-01-23 23:02:00,
2013-01-23 15:07:00,25.3,15.6,26.61,North,0,0.0,0.0,66,0.00,,,0.00,VWS V14.01,2013-01-23 23:07:00,
2013-01-23 15:12:00,25.3,15.6,26.61,North,0,0.0,0.0,66,0.00,,,0.00,VWS V14.01,2013-01-23 23:12:00,
2013-01-23 15:17:00,25.3,15.6,26.61,North,0,0.0,0.0,66,0.00,,,0.00,VWS V14.01,2013-01-23 23:17:00,
2013-01-23 15:22:00,25.3,15.9,26.61,North,0,0.0,0.0,67,0.00,,,0.00,VWS V14.01,2013-01-23 23:22:00,
2013-01-23 15:27:00,25.3,15.9,26.61,North,0,0.0,0.0,67,0.00,,,0.00,VWS V14.01,2013-01-23 23:27:00,
2013-01-23 15:32:00,25.5,16.1,26.61,North,0,0.0,0.0,67,0.00,,,0.00,VWS V14.01,2013-01-23 23:32:00,
2013-01-23 15:37:00,25.7,16.3,26.61,North,0,0.0,0.0,67,0.00,,,0.00,VWS V14.01,2013-01-23 23:37:00,
2013-01-23 15:42:00,25.7,16.3,26.61,North,0,0.0,0.0,67,0.00,,,0.00,VWS V14.01,2013-01-23 23:42:00,
2013-01-23 15:47:00,25.7,16.3,26.61,North,0,0.0,0.0,67,0.00,,,0.00,VWS V14.01,2013-01-23 23:47:00,
2013-01-23 15:52:00,25.7,16.3,26.61,North,0,0.0,0.0,67,0.00,,,0.00,VWS V14.01,2013-01-23 23:52:00,
2013-01-23 15:57:00,25.7,16.3,26.61,North,0,0.0,0.0,67,0.00,,,0.00,VWS V14.01,2013-01-23 23:57:00,
2013-01-23 16:02:00,25.5,16.1,26.61,North,0,0.0,0.0,67,0.00,,,0.00,VWS V14.01,2013-01-24 00:02:00,
2013-01-23 16:07:00,25.3,15.9,26.61,North,0,0.0,0.0,67,0.00,,,0.00,VWS V14.01,2013-01-24 00:07:00,
2013-01-23 16:12:00,25.3,15.9,26.61,North,0,0.0,0.0,67,0.00,,,0.00,VWS V14.01,2013-01-24 00:12:00,
2013-01-23 16:17:00,25.0,15.6,26.61,North,0,0.0,0.0,67,0.00,,,0.00,VWS V14.01,2013-01-24 00:17:00,
2013-01-23 16:22:00,24.8,15.4,26.61,North,0,0.0,0.0,67,0.00,,,0.00,VWS V14.01,2013-01-24 00:22:00,
2013-01-23 16:27:00,24.8,15.8,26.58,North,0,0.0,0.0,68,0.00,,,0.00,VWS V14.01,2013-01-24 00:27:00,
2013-01-23 16:32:00,24.6,15.6,26.58,North,0,0.0,0.0,68,0.00,,,0.00,VWS V14.01,2013-01-24 00:32:00,
2013-01-23 16:37:00,24.4,15.7,26.58,North,0,0.0,0.0,69,0.00,,,0.00,VWS V14.01,2013-01-24 00:37:00,
2013-01-23 16:42:00,24.4,16.1,26.58,North,0,0.0,0.0,70,0.00,,,0.00,VWS V14.01,2013-01-24 00:42:00,
2013-01-23 16:47:00,24.3,15.6,26.58,North,0,0.0,0.0,69,0.00,,,0.00,VWS V14.01,2013-01-24 00:47:00,
2013-01-23 16:52:00,24.4,15.7,26.58,North,0,0.0,0.0,69,0.00,,,0.00,VWS V14.01,2013-01-24 00:52:00,
2013-01-23 16:57:00,24.4,16.1,26.58,North,0,0.0,0.0,70,0.00,,,0.00,VWS V14.01,2013-01-24 00:57:00,
2013-01-23 17:02:00,24.4,16.1,26.58,North,0,0.0,0.0,70,0.00,,,0.00,VWS V14.01,2013-01-24 01:02:00,
2013-01-23 17:07:00,24.4,16.1,26.58,North,0,0.0,0.0,70,0.00,,,0.00,VWS V14.01,2013-01-24 01:07:00,
2013-01-23 17:12:00,24.4,16.1,26.58,North,0,0.0,0.0,70,0.00,,,0.00,VWS V14.01,2013-01-24 01:12:00,
2013-01-23 17:17:00,24.4,16.1,26.58,North,0,0.0,0.0,70,0.00,,,0.00,VWS V14.01,2013-01-24 01:17:00,
2013-01-23 17:22:00,24.6,16.2,26.58,North,0,0.0,0.0,70,0.00,,,0.00,VWS V14.01,2013-01-24 01:22:00,
2013-01-23 17:27:00,24.6,16.2,26.58,North,0,0.0,0.0,70,0.00,,,0.00,VWS V14.01,2013-01-24 01:27:00,
2013-01-23 17:32:00,24.6,16.6,26.58,North,0,0.0,0.0,71,0.00,,,0.00,VWS V14.01,2013-01-24 01:32:00,
2013-01-23 17:37:00,24.6,16.6,26.58,North,0,0.0,0.0,71,0.00,,,0.00,VWS V14.01,2013-01-24 01:37:00,
2013-01-23 17:42:00,24.8,16.8,26.58,North,0,0.0,0.0,71,0.00,,,0.00,VWS V14.01,2013-01-24 01:42:00,
2013-01-23 17:47:00,24.8,16.8,26.58,North,0,0.0,0.0,71,0.00,,,0.00,VWS V14.01,2013-01-24 01:47:00,
2013-01-23 17:52:00,24.8,17.1,26.58,North,0,0.0,0.0,72,0.00,,,0.00,VWS V14.01,2013-01-24 01:52:00,
2013-01-23 17:57:00,24.8,17.4,26.58,North,0,0.0,0.0,73,0.00,,,0.00,VWS V14.01,2013-01-24 01:57:00,
2013-01-23 18:02:00,25.0,17.2,26.58,North,0,0.0,0.0,72,0.00,,,0.00,VWS V14.01,2013-01-24 02:02:00,
2013-01-23 18:07:00,25.0,17.6,26.58,North,0,0.0,0.0,73,0.00,,,0.00,VWS V14.01,2013-01-24 02:07:00,
2013-01-23 18:12:00,25.0,17.6,26.58,North,0,0.0,0.0,73,0.00,,,0.00,VWS V14.01,2013-01-24 02:12:00,
2013-01-23 18:17:00,25.0,17.6,26.58,North,0,0.0,0.0,73,0.00,,,0.00,VWS V14.01,2013-01-24 02:17:00,
2013-01-23 18:22:00,25.0,17.6,26.58,North,0,0.0,0.0,73,0.00,,,0.00,VWS V14.01,2013-01-24 02:22:00,
2013-01-23 18:27:00,25.0,17.6,26.58,North,0,0.0,0.0,73,0.00,,,0.00,VWS V14.01,2013-01-24 02:27:00,
2013-01-23 18:32:00,25.0,17.9,26.58,North,0,0.0,0.0,74,0.00,,,0.00,VWS V14.01,2013-01-24 02:32:00,
2013-01-23 18:37:00,25.0,17.9,26.58,North,0,0.0,0.0,74,0.00,,,0.00,VWS V14.01,2013-01-24 02:37:00,
2013-01-23 18:42:00,25.0,17.6,26.61,North,0,0.0,0.0,73,0.00,,,0.00,VWS V14.01,2013-01-24 02:42:00,
2013-01-23 18:47:00,25.0,17.6,26.61,North,0,0.0,0.0,73,0.00,,,0.00,VWS V14.01,2013-01-24 02:47:00,
2013-01-23 18:52:00,24.8,17.7,26.61,North,0,0.0,0.0,74,0.00,,,0.00,VWS V14.01,2013-01-24 02:52:00,
2013-01-23 18:57:00,25.0,17.9,26.61,North,0,0.0,0.0,74,0.00,,,0.00,VWS V14.01,2013-01-24 02:57:00,
2013-01-23 19:02:00,25.0,17.9,26.61,North,0,0.0,0.0,74,0.00,,,0.00,VWS V14.01,2013-01-24 03:02:00,
2013-01-23 19:07:00,25.3,18.2,26.61,North,0,0.0,0.0,74,0.00,,,0.00,VWS V14.01,2013-01-24 03:07:00,
2013-01-23 19:12:00,25.7,17.9,26.61,North,0,0.0,0.0,72,0.00,,,0.00,VWS V14.01,2013-01-24 03:12:00,
2013-01-23 19:17:00,25.7,18.3,26.61,North,0,0.0,0.0,73,0.00,,,0.00,VWS V14.01,2013-01-24 03:17:00,
2013-01-23 19:22:00,25.7,17.9,26.61,North,0,0.0,0.0,72,0.00,,,0.00,VWS V14.01,2013-01-24 03:22:00,
2013-01-23 19:27:00,25.7,17.9,26.61,North,0,0.0,0.0,72,0.00,,,0.00,VWS V14.01,2013-01-24 03:27:00,
2013-01-23 19:32:00,25.5,17.8,26.61,North,0,0.0,0.0,72,0.00,,,0.00,VWS V14.01,2013-01-24 03:32:00,
2013-01-23 19:37:00,25.3,17.6,26.61,North,0,0.0,0.0,72,0.00,,,0.00,VWS V14.01,2013-01-24 03:37:00,
2013-01-23 19:42:00,25.2,17.4,26.61,North,0,0.0,0.0,72,0.00,,,0.00,VWS V14.01,2013-01-24 03:42:00,
2013-01-23 19:47:00,25.2,17.7,26.61,North,0,0.0,0.0,73,0.00,,,0.00,VWS V14.01,2013-01-24 03:47:00,
2013-01-23 19:52:00,25.2,18.0,26.61,North,0,0.0,0.0,74,0.00,,,0.00,VWS V14.01,2013-01-24 03:52:00,
2013-01-23 19:57:00,25.2,18.0,26.61,North,0,0.0,0.0,74,0.00,,,0.00,VWS V14.01,2013-01-24 03:57:00,
2013-01-23 20:02:00,25.0,17.6,26.61,North,0,0.0,0.0,73,0.00,,,0.00,VWS V14.01,2013-01-24 04:02:00,
2013-01-23 20:07:00,24.8,17.7,26.61,North,0,0.0,0.0,74,0.00,,,0.00,VWS V14.01,2013-01-24 04:07:00,
2013-01-23 20:12:00,24.8,17.7,26.61,North,0,0.0,0.0,74,0.00,,,0.00,VWS V14.01,2013-01-24 04:12:00,
2013-01-23 20:17:00,24.6,17.8,26.61,North,0,0.0,0.0,75,0.00,,,0.00,VWS V14.01,2013-01-24 04:17:00,
2013-01-23 20:22:00,24.6,17.8,26.61,North,0,0.0,0.0,75,0.00,,,0.00,VWS V14.01,2013-01-24 04:22:00,
2013-01-23 20:27:00,24.4,18.0,26.61,North,0,0.0,0.0,76,0.00,,,0.00,VWS V14.01,2013-01-24 04:27:00,
2013-01-23 20:32:00,24.4,18.0,26.61,North,0,0.0,0.0,76,0.00,,,0.00,VWS V14.01,2013-01-24 04:32:00,
2013-01-23 20:37:00,24.4,18.3,26.61,North,0,0.0,0.0,77,0.00,,,0.00,VWS V14.01,2013-01-24 04:37:00,
2013-01-23 20:42:00,24.3,18.1,26.61,North,0,0.0,0.0,77,0.00,,,0.00,VWS V14.01,2013-01-24 04:42:00,
2013-01-23 20:47:00,24.3,18.7,26.61,North,0,0.0,0.0,79,0.00,,,0.00,VWS V14.01,2013-01-24 04:47:00,
2013-01-23 20:52:00,24.1,18.5,26.61,North,0,0.0,0.0,79,0.00,,,0.00,VWS V14.01,2013-01-24 04:52:00,
2013-01-23 20:57:00,24.1,18.5,26.61,North,0,0.0,0.0,79,0.00,,,0.00,VWS V14.01,2013-01-24 04:57:00,
2013-01-23 21:00:00,24.1,18.8,26.61,North,0,0.0,0.0,80,0.00,,,0.00,VWS V14.01,2013-01-24 05:00:00,
2013-01-23 21:01:00,24.1,18.8,26.61,North,0,0.0,0.0,80,0.00,,,0.00,VWS V14.01,2013-01-24 05:01:00,
2013-01-23 21:03:00,24.1,18.8,26.61,North,0,0.0,0.0,80,0.00,,,0.00,VWS V14.01,2013-01-24 05:03:00,
2013-01-23 21:08:00,24.1,18.8,26.61,North,0,0.0,0.0,80,0.00,,,0.00,VWS V14.01,2013-01-24 05:08:00,
2013-01-23 21:13:00,24.1,18.8,26.58,North,0,0.0,0.0,80,0.00,,,0.00,VWS V14.01,2013-01-24 05:13:00,
2013-01-23 21:18:00,24.1,18.8,26.58,North,0,0.0,0.0,80,0.00,,,0.00,VWS V14.01,2013-01-24 05:18:00,
2013-01-23 21:23:00,24.3,19.0,26.58,North,0,0.0,0.0,80,0.00,,,0.00,VWS V14.01,2013-01-24 05:23:00,
2013-01-23 21:28:00,24.3,19.0,26.58,North,0,0.0,0.0,80,0.00,,,0.00,VWS V14.01,2013-01-24 05:28:00,
2013-01-23 21:33:00,24.4,19.2,26.58,North,0,0.0,0.0,80,0.00,,,0.00,VWS V14.01,2013-01-24 05:33:00,
2013-01-23 21:38:00,24.4,19.2,26.58,North,0,0.0,0.0,80,0.00,,,0.00,VWS V14.01,2013-01-24 05:38:00,
2013-01-23 21:43:00,24.4,19.2,26.58,North,0,0.0,0.0,80,0.00,,,0.00,VWS V14.01,2013-01-24 05:43:00,
2013-01-23 21:48:00,24.6,19.6,26.58,North,0,0.0,0.0,81,0.00,,,0.00,VWS V14.01,2013-01-24 05:48:00,
2013-01-23 21:53:00,24.6,19.6,26.58,North,0,0.0,0.0,81,0.00,,,0.00,VWS V14.01,2013-01-24 05:53:00,
2013-01-23 21:58:00,24.8,19.8,26.58,North,0,0.0,0.0,81,0.00,,,0.00,VWS V14.01,2013-01-24 05:58:00,
2013-01-23 22:03:00,25.0,20.0,26.58,North,0,0.0,0.0,81,0.00,,,0.00,VWS V14.01,2013-01-24 06:03:00,
2013-01-23 22:08:00,25.2,20.2,26.58,North,0,0.0,0.0,81,0.00,,,0.00,VWS V14.01,2013-01-24 06:08:00,
2013-01-23 22:13:00,25.2,20.5,26.55,North,0,0.0,0.0,82,0.00,,,0.00,VWS V14.01,2013-01-24 06:13:00,
2013-01-23 22:18:00,25.3,20.9,26.55,North,0,0.0,0.0,83,0.00,,,0.00,VWS V14.01,2013-01-24 06:18:00,
2013-01-23 22:23:00,25.3,21.5,26.58,North,0,0.0,0.0,85,0.00,,,0.00,VWS V14.01,2013-01-24 06:23:00,
2013-01-23 22:28:00,25.5,21.9,26.58,North,0,0.0,0.0,86,0.00,,,0.00,VWS V14.01,2013-01-24 06:28:00,
2013-01-23 22:33:00,25.7,22.1,26.58,North,0,0.0,0.0,86,0.00,,,0.00,VWS V14.01,2013-01-24 06:33:00,
2013-01-23 22:38:00,25.7,22.1,26.58,North,0,0.0,0.0,86,0.00,,,0.00,VWS V14.01,2013-01-24 06:38:00,
2013-01-23 22:43:00,25.9,22.3,26.55,North,0,0.0,0.0,86,0.00,,,0.00,VWS V14.01,2013-01-24 06:43:00,
2013-01-23 22:48:00,25.9,22.3,26.55,North,0,0.0,0.0,86,0.00,,,0.00,VWS V14.01,2013-01-24 06:48:00,
2013-01-23 22:53:00,25.9,22.0,26.55,North,0,0.0,0.0,85,0.00,,,0.00,VWS V14.01,2013-01-24 06:53:00,
2013-01-23 22:58:00,26.1,22.2,26.55,North,0,0.0,0.0,85,0.00,,,0.00,VWS V14.01,2013-01-24 06:58:00,
2013-01-23 23:03:00,26.1,22.2,26.55,North,0,0.0,0.0,85,0.00,,,0.00,VWS V14.01,2013-01-24 07:03:00,
2013-01-23 23:08:00,26.1,22.2,26.55,North,0,0.0,0.0,85,0.00,,,0.00,VWS V14.01,2013-01-24 07:08:00,
2013-01-23 23:13:00,26.1,22.2,26.55,North,0,0.0,0.0,85,0.00,,,0.00,VWS V14.01,2013-01-24 07:13:00,
2013-01-23 23:18:00,25.9,21.7,26.55,North,0,0.0,0.0,84,0.00,,,0.00,VWS V14.01,2013-01-24 07:18:00,
2013-01-23 23:23:00,25.7,21.5,26.55,North,0,0.0,0.0,84,0.00,,,0.00,VWS V14.01,2013-01-24 07:23:00,
2013-01-23 23:28:00,25.7,21.5,26.55,North,0,0.0,0.0,84,0.00,,,0.00,VWS V14.01,2013-01-24 07:28:00,
2013-01-23 23:33:00,25.7,21.5,26.55,North,0,0.0,0.0,84,0.00,,,0.00,VWS V14.01,2013-01-24 07:33:00,
2013-01-23 23:38:00,25.5,21.4,26.55,North,0,0.0,0.0,84,0.00,,,0.00,VWS V14.01,2013-01-24 07:38:00,
2013-01-23 23:43:00,25.5,21.4,26.55,North,0,0.0,0.0,84,0.00,,,0.00,VWS V14.01,2013-01-24 07:43:00,
2013-01-23 23:48:00,25.5,21.6,26.55,North,0,0.0,0.0,85,0.00,,,0.00,VWS V14.01,2013-01-24 07:48:00,
2013-01-23 23:53:00,25.5,21.6,26.55,North,0,0.0,0.0,85,0.00,,,0.00,VWS V14.01,2013-01-24 07:53:00,
2013-01-23 23:58:00,25.3,21.5,26.55,North,0,0.0,0.0,85,0.00,,,0.00,VWS V14.01,2013-01-24 07:58:00,